Location: Boulder, CO
(40.0083°N, 105.2472°W)
Time: 03:28:35
(UTC-07:00)

SORCE - Visible Passes

Search period start: 07 December 2016 00:00
Search period end: 17 December 2016 00:00
Orbit: 586 x 618 km, 40.0° (Epoch: 07 December)

Date Brightness Start Highest point End Pass type
(mag) Time Alt. Az. Time Alt. Az. Time Alt. Az.
07 Dec 7.4 18:05:33 10° SSW 18:09:12 25° SSE 18:10:24 22° SE visible
07 Dec 8.8 19:46:15 10° WSW 19:47:07 15° WSW 19:47:07 15° WSW visible
08 Dec 6.8 18:15:58 10° SW 18:20:05 38° SSE 18:21:02 34° SE visible
08 Dec 9.0 19:57:17 10° W 19:57:45 13° W 19:57:45 13° W visible
09 Dec 6.2 18:26:43 10° WSW 18:31:04 55° SSE 18:31:38 51° SE visible
10 Dec 5.9 18:37:39 10° WSW 18:42:05 73° SSE 18:42:12 73° SSE visible
11 Dec 6.8 17:07:17 10° SW 17:11:27 42° SSE 17:15:40 10° E visible
11 Dec 6.1 18:48:43 10° W 18:52:44 72° WSW 18:52:44 72° WSW visible
12 Dec 6.3 17:18:05 10° WSW 17:22:26 59° SSE 17:26:35 11° E visible
12 Dec 6.6 18:59:49 10° W 19:03:17 54° W 19:03:17 54° W visible
13 Dec 6.0 17:29:03 10° WSW 17:33:29 77° SSE 17:37:07 15° E visible
13 Dec 7.2 19:10:55 10° W 19:13:50 40° W 19:13:50 40° W visible
14 Dec 5.9 17:40:08 10° W 17:44:34 89° S 17:47:41 19° E visible
14 Dec 7.7 19:22:02 10° W 19:24:24 31° W 19:24:24 31° W visible
15 Dec 5.9 17:51:14 10° W 17:55:41 88° N 17:58:18 24° E visible
15 Dec 8.2 19:33:08 10° W 19:35:01 24° W 19:35:01 24° W visible
16 Dec 5.9 18:02:20 10° W 18:06:47 86° S 18:08:58 30° E visible
16 Dec 8.6 19:44:19 10° W 19:45:41 19° W 19:45:41 19° W visible
